Skip Page Navigation
NASA JPL Caltech
NASA Logo - Jet Propulsion Laboratory + View the NASA Portal
+ Near-Earth Object (NEO) Program
Search JPL
JPL Home Earth Solar System Stars & Galaxies Technology
JPL Solar System Dynamics
BODIES ORBITS EPHEMERIDES TOOLS PHYSICAL DATA DISCOVERY FAQ SITE MAP
JPL Small-Body Database Browser
Search: [ help ]  
9819 Sangerhausen (2172 T-1)
Classification: Main-belt Asteroid          SPK-ID: 2009819
Ephemeris | Orbit Diagram | Orbital Elements | Physical Parameters | Discovery Circumstances | Close-Approach Data ]

[ show orbit diagram ]
Orbital Elements at Epoch 2457000.5 (2014-Dec-09.0) TDB
Reference: JPL 11 (heliocentric ecliptic J2000)
 Element Value Uncertainty (1-sigma)   Units 
e .1813637249455374 3.9894e-08  
a 2.188176001401933 9.6475e-09 AU
q 1.791320250951247 8.6285e-08 AU
i 2.453651178246953 5.5888e-06 deg
node 56.69857798053525 0.00011252 deg
peri 244.9278643537612 0.00011405 deg
M 79.55038337730574 2.0486e-05 deg
tp 2456739.246823835898
(2014-Mar-22.74682384)
6.6681e-05 JED
period 1182.283974333526
3.24
7.8189e-06
2.141e-08
d
yr
n .3044953732058649 2.0137e-09 deg/d
Q 2.585031751852619 1.1397e-08 AU
  Orbit Determination Parameters
   # obs. used (total)      1033  
   data-arc span      16039 days (43.91 yr)  
   first obs. used      1971-03-24  
   last obs. used      2015-02-20  
   planetary ephem.      DE431  
   SB-pert. ephem.      SB431-BIG16  
   condition code      0  
   fit RMS      .53206  
   data source      ORB  
   producer      Otto Matic  
   solution date      2015-Mar-09 14:19:51  

Additional Information
 Earth MOID = .778675 AU 
 T_jup = 3.652 
[ show covariance matrix ]

Ephemeris | Orbit Diagram | Orbital Elements | Physical Parameters | Discovery Circumstances | Close-Approach Data ]

Physical Parameter Table
Parameter Symbol Value Units Sigma Reference Notes
absolute magnitude H 14.9 mag n/a MPO313498  

9819 Sangerhausen           Discovered 1971 Mar. 25 by C. J. van Houten and I. van Houten-Groeneveld on Palomar Schmidt plates taken by T. Gehrels.
In the vicinity of the German city of Sangerhausen, a remarkable archaeological object was unearthed. This 4000-year-old bronze disc shows a quasi-real starry sky. Its similarity to Homer's Iliad 18, 484--486 is striking. The name was suggested by W. Schlosser and L. D. Schmadel.
NOTE: some special characters may not display properly (any characters within {} are an attempt to place the proper accent above a character)
Reference: 20021120/MPCPages.arcLast Updated: 2003-10-02

[ show close-approach data ]
Alternate Designations
 2172 T-1 = 1981 JV5 = 1997 GY15 
Ephemeris | Orbit Diagram | Orbital Elements | Physical Parameters | Discovery Circumstances | Close-Approach Data ]
ABOUT SSD CREDITS/AWARDS PRIVACY/COPYRIGHT GLOSSARY LINKS
FirstGov 2015-Mar-30 20:04 UT
(server date/time)  
NASA Home Page
Site Manager:   Ryan S. Park
Webmaster  Alan B. Chamberlin